Total_Precipitation_Accumulation
0.50 0.44 0.55 0.63 0.58 0.62 0.86 0.84 0.75 0.49 0.40 0.43 0.45 0.50 0.49 0.47 0.44 0.41 0.45 0.50 0.55 0.66 0.75 0.76 0.79 0.78 0.84 0.94 1.00 1.17 1.39 1.58 1.59 1.56 1.63 1.68 1.67 1.74 1.74 1.76 1.83 1.97 2.10 2.24
0.43 0.30 0.40 0.48 0.41 0.45 0.52 0.53 0.51 0.40 0.43 0.40 0.42 0.39 0.43 0.45 0.46 0.47 0.49 0.53 0.53 0.59 0.69 0.76 0.80 0.79 0.85 0.96 0.99 1.08 1.26 1.44 1.55 1.54 1.59 1.63 1.61 1.68 1.75 1.77 1.78 1.87 1.93 1.97
0.66 0.32 0.58 0.78 0.55 0.51 0.52 0.53 0.53 0.54 0.51 0.41 0.39 0.41 0.46 0.50 0.53 0.55 0.58 0.57 0.56 0.61 0.68 0.74 0.80 0.80 0.85 0.94 0.98 1.02 1.14 1.32 1.43 1.47 1.50 1.53 1.54 1.61 1.70 1.75 1.69 1.71 1.74 1.74
1.03 0.73 1.16 0.82 0.45 0.46 0.52 0.56 0.56 0.56 0.49 0.46 0.46 0.47 0.47 0.48 0.56 0.62 0.62 0.61 0.61 0.66 0.69 0.69 0.74 0.81 0.84 0.87 0.93 0.97 1.07 1.23 1.40 1.43 1.43 1.43 1.46 1.50 1.58 1.63 1.65 1.59 1.58 1.57
1.49 1.07 0.73 0.46 0.32 0.47 0.59 0.62 0.56 0.48 0.40 0.38 0.38 0.38 0.41 0.42 0.45 0.55 0.60 0.61 0.62 0.67 0.70 0.67 0.69 0.76 0.83 0.87 0.90 0.97 1.10 1.21 1.34 1.43 1.42 1.38 1.41 1.44 1.45 1.46 1.53 1.49 1.45 1.49
1.73 1.30 0.76 0.49 0.26 0.31 0.52 0.71 0.46 0.40 0.39 0.38 0.40 0.50 0.47 0.40 0.39 0.44 0.47 0.52 0.59 0.62 0.63 0.62 0.65 0.70 0.77 0.85 0.87 0.95 1.11 1.22 1.28 1.34 1.38 1.35 1.36 1.40 1.38 1.33 1.35 1.37 1.33 1.34
1.42 1.18 0.57 0.33 0.21 0.28 0.70 0.81 0.42 0.37 0.39 0.41 0.52 0.61 0.50 0.42 0.40 0.42 0.46 0.50 0.53 0.56 0.57 0.62 0.65 0.68 0.73 0.79 0.89 0.94 1.04 1.12 1.19 1.26 1.29 1.25 1.28 1.30 1.31 1.30 1.28 1.27 1.23 1.25
1.14 1.28 0.69 0.30 0.30 0.61 0.75 0.39 0.31 0.30 0.32 0.36 0.39 0.37 0.36 0.39 0.41 0.44 0.48 0.49 0.51 0.54 0.54 0.57 0.61 0.63 0.68 0.77 0.87 0.90 0.92 0.96 1.07 1.18 1.21 1.16 1.23 1.21 1.19 1.24 1.28 1.28 1.26 1.29
0.92 0.82 0.55 0.41 0.49 0.51 0.44 0.37 0.28 0.29 0.29 0.33 0.35 0.36 0.38 0.41 0.42 0.46 0.48 0.50 0.51 0.52 0.50 0.52 0.58 0.61 0.67 0.74 0.80 0.90 0.89 0.92 0.99 1.08 1.15 1.16 1.19 1.18 1.19 1.19 1.23 1.28 1.27 1.24
0.62 0.48 0.40 0.38 0.35 0.30 0.28 0.31 0.29 0.30 0.33 0.35 0.38 0.38 0.41 0.42 0.45 0.49 0.52 0.53 0.55 0.52 0.52 0.56 0.60 0.62 0.67 0.72 0.78 0.87 0.89 0.91 0.95 1.03 1.14 1.14 1.16 1.17 1.20 1.23 1.31 1.33 1.28 1.24
0.51 0.38 0.30 0.25 0.25 0.27 0.25 0.23 0.23 0.24 0.28 0.34 0.37 0.39 0.42 0.46 0.49 0.53 0.55 0.55 0.54 0.52 0.54 0.58 0.60 0.63 0.65 0.69 0.76 0.85 0.87 0.88 0.92 0.97 1.12 1.16 1.20 1.24 1.26 1.24 1.43 1.57 1.44 1.41
0.48 0.35 0.40 0.31 0.25 0.26 0.28 0.26 0.26 0.28 0.28 0.29 0.34 0.40 0.42 0.49 0.52 0.54 0.54 0.52 0.51 0.50 0.54 0.59 0.60 0.63 0.64 0.68 0.74 0.82 0.87 0.89 0.90 0.95 1.09 1.12 1.16 1.26 1.31 1.30 1.32 1.32 1.36 1.46
0.35 0.25 0.29 0.28 0.26 0.26 0.29 0.29 0.30 0.33 0.34 0.34 0.34 0.38 0.45 0.50 0.52 0.51 0.49 0.52 0.55 0.59 0.61 0.62 0.61 0.64 0.68 0.69 0.70 0.77 0.87 0.91 0.92 0.93 1.02 1.07 1.01 1.09 1.17 1.19 1.22 1.24 1.25 1.30
0.24 0.26 0.27 0.24 0.27 0.26 0.26 0.27 0.30 0.30 0.31 0.33 0.36 0.39 0.42 0.45 0.46 0.47 0.52 0.59 0.59 0.58 0.61 0.62 0.59 0.64 0.69 0.69 0.67 0.74 0.82 0.89 0.93 0.96 1.00 1.03 1.00 1.00 0.99 1.05 1.12 1.17 1.21 1.28
0.20 0.25 0.28 0.25 0.24 0.23 0.22 0.23 0.25 0.27 0.28 0.29 0.31 0.36 0.40 0.43 0.46 0.48 0.51 0.54 0.52 0.52 0.56 0.55 0.55 0.62 0.66 0.65 0.66 0.73 0.83 0.90 0.94 1.01 1.03 1.03 1.01 1.01 0.97 0.97 1.01 1.06 1.14 1.32
0.21 0.17 0.17 0.19 0.21 0.22 0.23 0.24 0.26 0.30 0.32 0.33 0.34 0.39 0.45 0.46 0.44 0.44 0.45 0.46 0.49 0.55 0.56 0.56 0.60 0.65 0.66 0.64 0.63 0.69 0.81 0.99 1.05 1.08 1.07 1.04 1.03 1.02 1.00 1.00 1.03 1.06 1.14 1.31
0.30 0.23 0.20 0.20 0.21 0.22 0.25 0.28 0.31 0.35 0.36 0.38 0.44 0.47 0.46 0.41 0.38 0.39 0.44 0.46 0.48 0.51 0.54 0.57 0.62 0.63 0.63 0.63 0.67 0.72 0.82 0.93 1.05 1.07 1.07 1.08 1.08 1.06 1.04 1.06 1.08 1.08 1.14 1.30
0.33 0.31 0.29 0.31 0.31 0.29 0.28 0.28 0.30 0.35 0.38 0.41 0.44 0.46 0.46 0.43 0.43 0.45 0.48 0.46 0.41 0.42 0.49 0.55 0.60 0.62 0.61 0.63 0.71 0.78 0.87 0.95 1.02 1.11 1.14 1.17 1.19 1.13 1.11 1.10 1.07 1.09 1.14 1.25
0.28 0.29 0.28 0.29 0.31 0.32 0.33 0.33 0.34 0.34 0.35 0.36 0.38 0.41 0.43 0.44 0.44 0.46 0.46 0.44 0.43 0.49 0.56 0.57 0.61 0.58 0.59 0.67 0.80 0.85 0.93 1.01 1.08 1.14 1.17 1.26 1.26 1.18 1.16 1.13 1.12 1.12 1.17 1.25
0.29 0.29 0.30 0.29 0.28 0.31 0.32 0.34 0.34 0.31 0.32 0.36 0.37 0.37 0.38 0.40 0.43 0.45 0.46 0.47 0.54 0.64 0.64 0.64 0.61 0.60 0.65 0.75 0.89 0.92 0.96 1.06 1.15 1.20 1.22 1.25 1.28 1.28 1.25 1.22 1.20 1.20 1.21 1.25
0.32 0.30 0.29 0.28 0.27 0.28 0.32 0.35 0.37 0.34 0.33 0.37 0.42 0.43 0.43 0.43 0.44 0.46 0.48 0.53 0.58 0.63 0.64 0.64 0.62 0.70 0.83 0.93 0.95 0.93 0.99 1.10 1.18 1.21 1.26 1.31 1.34 1.32 1.30 1.27 1.24 1.23 1.24 1.23
0.36 0.34 0.33 0.32 0.33 0.34 0.36 0.38 0.40 0.40 0.38 0.40 0.43 0.45 0.46 0.46 0.45 0.47 0.54 0.66 0.71 0.71 0.67 0.65 0.71 0.85 0.98 1.00 0.92 0.93 1.02 1.15 1.23 1.24 1.29 1.32 1.38 1.41 1.35 1.32 1.31 1.28 1.27 1.25
0.44 0.43 0.43 0.44 0.46 0.48 0.44 0.45 0.47 0.48 0.50 0.51 0.53 0.54 0.55 0.57 0.55 0.56 0.65 0.70 0.72 0.74 0.73 0.79 0.86 0.94 0.98 0.96 0.96 0.99 1.11 1.26 1.33 1.34 1.35 1.38 1.43 1.48 1.48 1.43 1.37 1.35 1.36 1.33
0.53 0.52 0.54 0.55 0.54 0.52 0.54 0.56 0.58 0.59 0.61 0.63 0.66 0.66 0.65 0.62 0.60 0.65 0.75 0.79 0.78 0.78 0.82 0.88 0.90 0.92 0.95 0.96 1.01 1.12 1.25 1.36 1.42 1.43 1.44 1.44 1.46 1.51 1.53 1.50 1.45 1.37 1.33 1.31
0.61 0.61 0.60 0.61 0.64 0.69 0.69 0.66 0.62 0.61 0.60 0.64 0.67 0.68 0.69 0.71 0.76 0.80 0.79 0.80 0.80 0.80 0.82 0.85 0.87 0.89 0.91 0.98 1.08 1.23 1.36 1.45 1.55 1.58 1.56 1.54 1.52 1.54 1.54 1.50 1.43 1.34 1.29 1.26
0.64 0.67 0.70 0.74 0.79 0.80 0.77 0.70 0.67 0.66 0.63 0.63 0.65 0.67 0.70 0.72 0.76 0.79 0.80 0.80 0.80 0.82 0.84 0.84 0.85 0.90 0.97 1.05 1.15 1.28 1.38 1.47 1.57 1.61 1.56 1.54 1.51 1.52 1.53 1.48 1.36 1.27 1.20 1.17
0.65 0.66 0.66 0.66 0.70 0.74 0.74 0.73 0.74 0.73 0.69 0.67 0.68 0.70 0.72 0.73 0.75 0.76 0.76 0.78 0.79 0.81 0.83 0.86 0.89 0.96 1.03 1.12 1.21 1.30 1.38 1.45 1.57 1.65 1.61 1.56 1.54 1.54 1.53 1.43 1.30 1.20 1.13 1.11